Theta_e
316 315 316 316 316 316 316 316 316 316 316 316 316 317 317 317 317 318 318 319 319 319 318 319 318 318 318 319 318 318 318 319 319 319 319 319 320 320 321 322 323 324 325 326 328 329 330 332 332 333 332 332 332 332 332 333 332 331 330 329 328 328 328 327 326 326 326 326 325
315 315 315 314 314 314 315 315 316 316 316 316 316 316 317 317 317 318 318 318 319 318 318 318 318 318 318 318 318 318 318 318 318 318 318 318 318 319 319 320 322 323 324 325 326 328 329 331 331 330 328 327 327 327 328 329 330 330 329 328 327 328 328 328 327 327 326 325 324
314 314 314 314 314 314 314 314 315 315 315 316 316 316 317 317 317 317 318 318 318 318 317 317 318 318 318 318 317 317 317 316 316 316 316 316 317 317 318 318 320 321 322 322 324 324 325 326 325 324 324 324 323 323 323 324 326 326 325 324 323 323 323 322 324 324 322 320 320
313 313 313 313 313 313 313 313 314 314 314 315 315 315 316 316 316 317 317 317 318 317 317 316 316 317 317 317 316 316 316 315 314 314 314 314 315 315 316 317 318 319 320 321 321 321 322 321 321 320 320 320 319 319 318 319 319 319 318 317 317 317 316 316 316 316 315 314 315
312 312 312 312 312 312 313 313 313 313 313 313 314 314 315 315 315 316 316 316 316 316 315 315 315 315 315 315 315 315 314 314 313 312 312 313 313 314 315 316 317 317 318 319 319 319 319 319 318 317 317 316 316 316 316 316 316 315 314 314 314 313 313 311 311 311 311 311 310
311 311 311 311 312 312 312 312 312 311 312 312 312 313 313 314 314 314 315 315 315 314 314 313 313 312 313 313 314 313 313 312 311 311 311 311 312 313 314 315 315 316 317 317 317 317 316 316 315 315 314 314 314 314 314 315 314 312 311 311 310 311 311 309 309 309 309 308 307
310 310 310 310 310 311 311 311 311 311 311 311 311 312 312 312 312 313 313 313 312 312 311 311 311 311 311 311 312 312 311 310 310 309 310 310 312 312 313 313 314 314 314 315 315 315 315 315 314 313 312 312 312 313 313 313 312 311 309 309 309 309 309 308 308 308 307 307 306
310 309 309 310 310 310 310 311 311 310 311 310 311 311 311 311 311 311 311 311 310 309 309 309 309 309 309 310 310 310 310 310 309 309 309 309 310 311 311 312 312 312 312 313 313 313 313 313 312 312 311 311 311 311 312 311 310 309 308 307 307 307 307 307 308 307 307 306 305
309 309 309 309 309 310 310 310 310 310 310 310 310 310 310 310 310 309 310 310 309 308 308 308 308 309 309 310 310 310 309 309 309 309 309 309 310 310 311 312 311 311 311 311 311 311 311 311 310 310 310 309 309 310 310 310 309 308 307 306 306 305 306 306 306 306 306 305 304
308 308 309 309 309 309 309 310 310 310 309 309 309 309 309 308 308 308 309 309 308 308 307 307 308 308 309 309 309 309 309 309 308 309 309 310 309 310 310 311 311 311 311 311 311 311 310 309 309 308 308 308 308 308 308 308 307 306 305 304 304 304 304 304 304 304 304 303 302
308 308 308 308 308 309 309 309 309 309 309 308 308 308 307 307 307 308 308 307 308 307 307 307 307 308 308 308 308 309 309 309 308 308 308 309 309 309 310 309 310 310 311 311 311 310 310 309 308 307 307 307 307 307 307 306 306 305 304 303 303 303 302 302 302 302 302 301 301
307 307 307 307 307 308 308 308 308 308 308 308 307 307 306 306 306 306 306 307 307 307 306 307 307 307 307 307 307 308 308 308 308 308 308 308 308 309 308 308 308 309 310 310 311 310 310 308 308 307 306 306 306 306 306 305 304 304 303 302 302 301 300 300 301 301 301 301 300
306 306 306 306 307 307 307 307 308 307 307 306 306 306 306 305 305 306 306 306 306 306 306 306 307 307 306 307 307 307 307 307 308 308 308 307 308 308 308 307 307 307 308 310 310 310 309 308 307 306 306 305 305 305 305 304 303 302 302 301 300 300 300 300 300 300 300 300 300
306 306 306 306 306 306 306 306 307 306 306 305 305 305 305 305 305 305 306 306 306 306 305 306 306 306 306 306 306 307 307 307 307 307 307 307 307 307 307 307 306 306 307 309 309 309 308 307 307 306 305 304 304 304 304 304 303 302 301 300 300 299 299 299 300 300 299 299 299
305 305 305 305 305 305 305 305 306 306 305 305 304 304 304 305 306 306 306 306 306 306 306 306 306 306 306 306 306 306 307 307 307 307 307 306 307 306 307 306 306 306 307 308 308 308 307 307 306 305 304 304 304 304 304 303 303 302 301 300 300 300 300 300 300 299 299 299 298
304 304 304 304 304 304 304 304 305 305 305 305 304 304 304 305 306 307 307 306 306 306 306 306 306 306 306 306 306 306 306 306 306 306 306 305 305 306 305 305 305 305 306 306 306 306 306 307 306 305 304 303 303 303 303 303 302 302 302 301 301 301 301 300 300 300 299 299 298
304 304 304 304 303 304 303 304 304 304 304 304 304 304 304 305 306 306 307 307 306 306 306 306 306 306 306 306 306 306 306 305 305 305 305 305 304 304 304 304 304 304 305 305 305 305 305 305 305 304 304 303 303 303 303 302 302 302 301 301 301 301 300 300 300 299 299 298 298
303 303 303 303 303 302 303 303 303 303 304 303 303 303 304 305 305 306 306 306 306 306 306 305 305 305 305 305 305 305 305 305 304 304 304 303 303 302 302 302 302 303 303 303 303 303 303 303 303 302 302 302 302 301 301 301 301 300 300 300 300 299 299 299 299 299 298 298 297
303 303 303 302 302 302 302 302 302 302 303 303 303 303 304 304 304 304 305 305 305 305 304 304 304 304 304 304 304 304 304 303 303 303 302 302 301 301 301 300 300 301 301 301 301 301 301 301 301 301 301 301 300 300 300 299 299 299 299 299 298 298 298 298 298 298 298 297 297
303 303 303 302 302 302 302 301 302 302 302 302 302 303 303 303 303 304 303 303 304 304 303 303 303 303 303 303 303 303 302 302 302 301 301 300 300 300 299 299 299 299 300 300 300 300 300 300 300 300 300 299 299 299 298 298 297 297 297 297 297 297 297 297 297 297 297 297 296
303 303 302 302 302 301 301 301 302 302 302 302 302 302 303 303 303 303 303 303 303 302 302 302 302 302 302 302 302 301 301 301 301 300 300 299 299 299 299 299 298 298 298 299 299 300 300 300 299 299 299 298 298 297 297 296 296 296 296 296 296 296 296 296 297 297 296 296 296
303 303 302 302 302 301 301 301 302 302 302 301 302 302 302 303 303 303 302 302 302 302 302 302 302 301 301 301 301 301 300 300 299 299 299 298 298 298 298 298 298 298 298 298 299 299 299 299 298 298 298 297 297 296 296 295 295 295 295 295 295 296 296 297 297 296 297 297 296
303 302 302 301 301 301 301 300 301 301 301 301 301 301 302 302 302 302 301 301 301 301 301 301 301 300 300 299 299 299 299 299 298 298 298 297 297 297 298 298 298 298 298 298 298 298 298 298 297 297 297 297 296 296 296 295 295 295 295 295 295 295 296 296 296 296 296 296 297
302 301 301 301 301 300 300 300 300 300 300 301 301 301 301 301 301 300 300 300 299 300 300 300 299 299 298 298 298 298 297 297 297 296 296 297 297 297 297 297 297 297 297 297 298 298 298 297 297 297 297 297 296 296 296 295 295 295 295 295 294 295 295 295 296 296 296 296 296
301 301 300 300 300 299 299 299 299 300 300 300 300 300 300 299 299 299 298 298 298 298 298 298 298 297 297 297 297 297 297 296 296 295 295 295 296 296 296 296 296 296 296 296 297 297 298 297 297 297 296 296 296 296 295 295 295 295 294 294 294 294 294 294 295 295 296 296 295
300 300 299 299 299 299 299 299 299 299 299 299 299 299 298 298 298 297 297 297 297 297 297 297 297 296 296 296 296 296 297 296 296 295 295 295 295 295 295 295 295 295 295 295 296 297 297 298 298 297 297 296 296 295 295 295 295 295 294 294 294 293 293 293 294 294 294 295 294
300 299 299 299 298 298 298 298 298 299 298 298 298 298 298 297 297 297 297 297 297 297 297 297 296 296 295 296 296 296 295 295 295 295 295 295 294 294 294 294 295 295 295 295 296 296 297 297 297 297 297 296 296 295 295 294 294 294 294 294 293 293 293 292 293 293 293 293 294
299 299 299 298 298 298 298 298 298 298 298 298 298 297 297 297 297 297 297 297 297 296 296 296 296 296 296 295 295 295 295 295 294 294 294 294 294 294 294 294 294 294 295 295 296 296 297 297 297 297 296 296 295 295 294 294 294 293 293 293 293 293 293 292 292 292 292 292 292
299 298 298 298 298 298 298 298 298 298 298 297 298 298 298 297 297 297 297 297 296 296 296 296 296 296 296 295 295 295 295 295 295 295 295 295 294 294 294 294 294 294 295 296 296 296 296 296 296 296 296 295 295 294 294 293 293 293 293 293 293 293 293 293 292 292 292 292 292
299 299 298 298 298 298 298 298 298 298 298 298 298 298 297 297 297 297 296 296 296 296 296 296 296 296 296 296 296 295 295 295 295 295 295 295 295 294 294 295 295 295 295 296 296 296 296 296 296 296 295 295 294 294 293 293 293 293 293 292 292 292 292 292 292 292 292 291 291
299 298 298 298 298 298 298 298 298 298 297 298 298 297 297 297 296 296 296 296 296 296 297 297 296 296 296 296 296 295 295 296 296 295 295 295 295 295 295 295 295 295 296 296 296 296 296 296 295 295 295 295 294 294 293 293 293 293 292 292 292 292 291 291 292 292 292 291 291
299 298 298 298 298 298 298 298 298 297 297 297 297 297 296 296 296 296 296 296 296 296 296 296 295 295 295 296 296 295 295 295 296 296 296 296 295 295 295 295 295 295 296 296 296 296 295 295 295 294 294 293 292 292 292 292 291 291 291 291 291 291 290 291 291 291 292 292 291
298 298 298 297 297 298 298 297 297 297 297 296 296 296 296 295 296 295 296 296 296 296 295 295 295 295 295 295 295 295 295 295 295 296 296 296 295 295 295 295 295 296 296 296 295 295 295 294 293 293 292 291 290 290 289 289 289 289 289 289 289 289 290 290 291 291 291 291 291
298 297 297 297 297 297 297 297 296 296 296 296 296 296 296 295 295 295 295 295 295 296 295 295 295 295 295 295 295 295 295 295 295 295 295 296 295 295 295 295 295 295 295 295 295 294 294 293 292 292 291 291 290 289 288 288 288 288 288 288 288 288 288 288 289 289 290 290 291
297 297 297 297 297 297 297 296 296 296 295 295 295 295 295 295 294 294 294 295 295 295 295 295 295 295 295 295 294 294 294 294 295 295 295 295 295 294 294 294 294 295 295 295 294 293 293 292 292 291 291 290 289 289 288 288 288 287 287 287 286 286 287 287 287 288 289 289 289
297 297 297 297 297 296 296 296 295 295 294 294 294 294 294 294 294 294 294 294 294 294 294 294 294 293 293 292 292 292 292 292 293 294 295 295 295 294 294 294 294 294 294 294 293 293 292 292 291 291 290 289 289 288 288 288 287 287 287 286 286 286 286 287 287 287 288 288 289
297 297 297 297 296 296 296 295 295 294 294 294 294 294 294 293 294 294 294 294 293 293 293 293 292 292 291 290 289 289 290 291 291 292 293 294 294 293 293 292 292 293 293 293 293 292 292 291 291 290 289 288 288 287 287 287 286 286 286 286 286 286 286 286 286 287 287 288 288
297 297 297 296 296 296 295 295 294 294 294 293 293 293 293 293 293 293 293 293 293 292 292 292 291 291 290 289 289 288 289 290 290 290 290 290 292 292 292 291 291 292 292 292 292 292 291 291 290 289 288 287 287 286 286 286 285 285 285 285 285 285 286 286 286 287 287 287 288
297 297 296 296 296 295 295 294 294 294 293 293 293 293 293 293 293 293 293 293 293 292 292 291 291 290 289 289 289 288 288 289 289 289 288 288 291 292 292 291 290 291 291 292 292 291 290 290 289 289 288 287 286 286 285 285 285 285 284 284 284 285 285 286 286 286 287 287 288
297 296 296 296 296 295 294 294 294 293 293 293 292 292 292 292 293 293 293 293 293 293 292 291 290 290 289 289 289 289 288 289 289 289 288 289 290 291 291 290 290 290 290 291 291 290 290 289 288 288 287 286 286 285 285 285 285 284 284 284 284 285 285 285 286 286 287 287 288
297 296 296 296 295 295 294 294 293 293 293 292 292 292 292 292 292 292 292 292 292 292 291 291 290 290 290 290 289 289 288 289 289 288 288 289 290 290 291 290 289 289 289 290 290 290 289 288 288 287 287 286 286 286 285 285 285 284 284 285 285 285 285 285 286 286 286 287 287
Wind_Speed
2 2 1 1 1 0 1 1 1 1 1 2 2 2 2 2 3 3 2 2 2 2 2 2 3 3 4 5 5 5 6 6 6 6 6 6 6 7 7 7 7 7 7 8 8 7 7 7 6 4 2 1 1 1 1 1 2 2 3 3 4 5 6 6 5 6 6 6 4
2 2 2 2 1 1 1 1 1 1 2 2 2 2 2 2 3 3 3 2 2 2 2 2 3 3 4 4 4 4 5 5 6 6 6 6 6 6 6 6 6 6 6 7 6 5 5 5 3 1 1 1 2 2 1 0 1 2 3 3 2 3 4 4 4 4 4 4 3
2 2 2 2 2 1 2 2 2 2 1 1 1 2 2 2 3 3 3 2 2 2 2 2 3 3 3 3 3 4 4 4 5 5 5 5 5 6 6 6 6 6 5 5 5 4 3 3 3 2 2 2 2 2 2 2 2 2 2 3 2 2 1 2 2 2 2 2 3
2 2 1 1 1 1 1 1 1 1 1 1 2 2 2 2 3 3 3 3 2 2 2 2 3 3 3 3 3 4 4 4 4 5 5 4 5 5 6 6 5 5 5 5 4 4 4 4 3 2 3 3 3 3 2 2 4 4 4 4 3 3 3 3 3 3 3 3 4
2 2 1 1 0 0 1 1 2 2 2 2 2 2 2 2 2 3 3 3 2 2 2 2 3 3 3 4 4 4 4 4 4 4 4 5 5 5 5 5 5 5 5 5 4 4 4 4 3 3 3 3 3 3 3 3 4 4 4 3 3 3 3 3 3 3 3 3 3
2 2 1 1 0 0 1 1 1 1 1 2 2 2 2 2 2 2 2 2 2 2 2 2 3 3 3 4 4 3 3 4 3 4 4 4 4 5 5 5 5 5 4 5 5 4 4 4 3 3 3 3 3 3 4 4 4 4 4 4 3 3 3 3 3 3 3 4 5
2 2 1 1 0 0 0 1 1 1 1 2 2 3 2 2 2 2 3 2 2 2 2 2 2 2 3 3 3 3 3 3 3 3 4 4 4 5 5 5 5 5 5 5 5 4 4 4 3 2 3 3 3 3 4 4 4 4 5 4 3 3 3 3 3 3 4 6 6
2 2 1 1 0 0 1 1 1 1 1 2 2 2 2 2 3 3 2 1 1 1 1 1 2 2 3 3 3 3 3 3 3 3 3 3 4 4 5 5 5 5 5 5 5 5 4 3 3 3 3 3 2 3 4 5 5 5 5 5 4 3 3 3 3 4 4 6 6
2 2 1 1 1 1 1 1 2 2 2 2 2 2 2 2 3 2 2 1 1 0 1 1 2 2 2 3 2 3 3 3 3 3 3 3 4 4 4 4 4 4 4 4 4 4 4 3 3 3 3 3 3 3 3 5 6 6 6 5 4 4 4 4 4 5 5 6 6
2 2 1 1 1 1 1 2 2 2 2 2 2 1 2 2 2 2 2 1 1 0 0 1 1 2 2 2 2 2 3 3 3 4 4 4 4 4 4 4 4 4 4 3 3 3 3 3 3 3 3 3 3 4 4 5 6 6 6 4 5 5 6 5 5 6 6 6 6
2 2 1 1 1 1 1 2 2 2 1 1 1 1 1 1 1 1 1 1 1 0 0 1 1 2 2 2 2 2 2 2 2 3 3 4 4 4 4 4 5 4 4 3 2 2 3 3 4 4 4 4 4 4 5 6 6 7 6 5 6 6 6 6 6 5 6 6 7
2 2 1 1 1 1 2 3 2 2 1 1 1 1 1 0 0 1 1 1 1 0 1 1 2 2 2 2 2 2 2 2 2 2 2 3 3 4 4 4 4 5 4 4 3 3 3 4 4 4 5 5 4 4 5 6 6 7 7 7 7 7 7 6 5 5 5 6 7
2 2 2 2 2 2 3 3 3 2 2 1 1 1 0 1 1 1 1 1 1 0 0 1 1 2 2 2 2 2 2 2 2 2 2 3 3 3 3 4 4 4 4 3 3 3 3 4 4 5 5 5 4 4 5 6 6 6 7 7 7 7 6 6 5 5 5 6 7
2 2 2 2 2 3 3 3 3 2 1 1 1 1 1 1 2 2 2 1 1 1 1 0 1 1 1 2 2 2 2 2 2 2 2 2 3 3 3 4 4 4 4 3 3 4 4 4 4 5 5 5 5 5 5 6 6 6 6 7 7 7 7 6 5 5 5 6 7
3 3 2 2 3 3 3 3 3 2 2 2 1 1 1 1 2 2 2 2 1 1 1 1 0 0 1 2 2 2 2 2 2 2 2 2 3 3 3 3 4 4 4 4 4 4 5 5 5 5 5 5 6 6 6 6 6 6 6 6 6 6 6 6 5 5 5 6 6
3 2 2 3 3 3 3 3 2 2 2 2 2 1 2 2 2 3 3 2 2 2 1 1 1 1 1 1 2 3 3 2 2 2 2 2 3 3 3 3 4 4 4 4 4 4 4 4 5 5 6 6 5 6 6 6 6 6 6 6 6 6 6 5 5 5 5 5 6
2 2 2 2 2 3 3 3 3 3 3 3 2 2 2 3 3 3 3 2 2 2 2 2 1 1 1 1 2 2 3 3 2 2 2 3 3 3 3 3 3 3 3 3 3 4 4 5 5 6 6 5 5 5 6 6 6 6 6 6 6 6 6 5 5 5 5 5 6
2 2 2 2 2 2 3 3 3 3 3 3 2 2 3 3 3 3 3 3 3 3 3 2 2 2 2 2 2 2 3 3 3 3 3 4 4 4 4 3 3 3 3 3 4 4 5 5 5 5 5 5 5 5 6 6 6 6 7 6 6 6 5 5 5 5 5 5 5
2 2 2 2 2 2 3 3 3 3 3 3 3 3 3 2 2 2 2 2 2 3 3 3 3 3 3 3 3 3 3 3 3 4 4 4 4 4 3 3 3 3 4 4 4 4 4 4 5 5 5 5 5 6 6 6 6 6 7 6 6 6 6 5 5 5 5 5 5
2 2 2 2 2 2 2 3 3 3 3 3 3 3 3 2 2 2 2 2 2 2 3 3 3 3 3 3 3 3 3 3 3 3 3 3 3 3 3 2 3 3 3 3 3 3 4 4 5 5 5 6 6 6 6 6 6 7 6 6 6 6 6 6 6 6 6 5 5
2 2 2 2 2 2 3 3 3 3 3 3 3 3 3 3 2 2 2 2 2 2 2 3 3 3 3 3 3 3 3 2 2 2 2 2 2 2 1 1 2 2 3 2 2 3 4 5 5 5 6 6 6 7 6 6 6 6 6 6 5 5 6 6 6 6 6 5 5
2 2 2 2 2 3 3 4 4 3 3 3 3 3 3 3 3 2 2 2 2 2 3 3 3 3 3 3 3 3 2 2 2 2 2 2 2 2 2 1 2 2 2 2 2 3 4 5 6 6 6 6 6 7 6 6 6 6 6 6 6 6 6 6 5 5 5 5 5
2 2 2 3 3 3 4 4 4 4 3 3 3 3 3 3 3 2 2 2 2 2 3 2 1 1 2 2 2 2 2 1 2 2 2 2 2 2 2 2 2 2 2 2 2 3 4 5 5 6 6 6 6 7 6 6 6 6 6 7 7 6 6 5 5 5 5 5 5
2 2 2 2 3 4 4 5 5 5 4 4 3 3 3 3 2 2 2 1 2 2 2 1 0 1 1 1 0 1 1 0 1 2 2 2 2 1 1 1 1 1 1 1 2 2 3 4 5 5 5 6 6 6 6 6 6 6 6 7 7 7 6 5 5 5 5 5 6
3 3 3 3 3 4 4 4 5 5 5 4 3 3 2 1 1 1 0 0 1 1 0 1 1 1 1 1 1 1 1 1 1 2 2 2 2 2 1 1 1 1 1 2 2 2 3 4 4 5 5 5 6 6 6 6 6 6 7 7 7 6 6 6 5 5 6 6 6
3 3 3 4 4 4 4 4 4 4 4 4 3 2 1 1 1 1 1 1 1 1 1 2 1 1 1 1 1 1 1 1 2 2 2 2 2 2 2 2 2 1 1 2 2 2 3 4 5 5 5 5 5 6 6 6 6 6 7 7 6 6 6 6 5 6 6 6 7
3 4 4 4 4 5 5 4 4 4 3 3 2 2 2 2 2 2 2 2 2 2 2 2 2 2 1 1 1 1 1 1 2 2 2 2 3 3 3 2 2 2 2 3 4 4 4 5 5 5 5 4 5 5 5 5 6 6 6 6 6 6 6 6 6 6 6 6 7
4 4 4 5 5 5 4 4 3 3 3 3 3 3 3 3 3 3 3 3 3 3 3 2 2 2 2 2 2 2 2 2 2 3 3 3 4 3 3 2 2 3 4 5 6 6 6 6 6 6 6 5 4 4 5 5 6 5 5 5 5 5 5 5 5 5 6 6 6
5 5 5 5 4 4 4 4 3 3 3 4 4 4 4 4 3 3 3 3 3 3 3 2 2 2 2 2 3 3 3 3 3 3 3 4 4 3 3 3 3 4 5 7 7 7 7 7 7 7 7 6 4 4 4 4 5 4 4 4 4 4 4 4 5 5 5 5 5
5 5 5 5 5 5 4 4 4 4 4 4 4 4 3 3 3 3 3 3 4 3 3 2 2 2 3 3 3 3 3 3 3 3 3 3 3 3 3 4 4 4 6 7 8 8 8 8 8 8 8 7 5 4 3 4 4 4 4 4 4 4 4 4 5 5 5 5 5
5 5 5 5 5 5 5 5 4 4 4 4 4 3 2 2 2 3 3 3 3 2 2 2 3 3 3 2 2 2 2 2 2 2 3 3 3 4 4 4 4 5 6 8 8 8 8 8 9 8 8 7 5 4 3 4 4 4 4 4 4 4 4 3 4 4 5 5 5
6 6 6 6 6 5 5 5 4 4 4 4 3 3 3 2 3 3 3 3 2 2 2 3 3 3 2 2 2 2 2 2 2 2 3 3 4 4 5 5 5 5 7 9 9 9 9 9 8 8 8 7 6 5 4 4 4 4 5 5 4 4 4 2 3 4 5 5 5
6 6 6 6 6 5 5 5 4 4 4 4 4 3 3 3 3 2 2 2 2 3 3 3 3 3 2 2 2 2 2 2 2 3 3 4 4 5 5 5 5 6 7 9 9 9 9 9 9 9 8 8 6 5 5 5 4 4 5 5 4 4 4 4 3 3 3 3 3
7 7 7 6 6 5 5 5 4 4 4 4 4 4 4 3 3 3 2 2 2 2 3 3 2 2 2 2 2 2 2 2 3 3 4 4 4 5 5 4 4 5 8 9 9 9 9 9 9 9 9 8 6 5 5 6 5 5 5 5 5 5 5 4 4 3 3 2 2
7 7 7 6 6 6 5 5 5 5 5 5 4 4 4 4 3 3 3 2 2 2 2 2 2 2 3 3 4 4 3 3 3 3 4 4 4 5 5 5 5 7 9 10 9 9 10 10 10 9 9 7 5 4 5 6 6 6 6 6 5 5 4 4 4 3 3 3 2
8 7 7 7 6 6 6 6 6 6 5 5 5 5 4 4 4 3 3 3 3 3 3 3 3 4 4 5 5 5 4 4 3 3 3 3 4 5 5 5 6 7 9 10 9 9 9 10 9 9 7 5 4 4 5 5 5 5 6 6 5 5 4 4 3 3 3 3 3
8 8 7 7 7 7 7 6 6 6 6 6 5 5 5 5 4 4 4 4 4 4 4 4 4 5 5 5 4 4 4 4 4 3 3 3 4 5 5 5 6 7 8 9 9 9 9 9 8 7 6 4 3 4 4 4 4 4 5 5 5 5 4 3 3 3 3 3 3
8 8 7 7 7 7 7 7 7 7 6 6 5 5 5 5 4 4 4 4 4 4 5 5 5 5 5 5 5 4 4 4 4 4 3 3 3 4 6 6 5 6 7 8 8 8 8 8 7 6 5 4 4 4 3 3 4 4 4 4 4 4 4 3 3 3 3 3 3
8 8 7 7 6 6 7 7 7 6 6 6 5 5 5 5 4 4 4 4 4 4 5 5 5 5 5 5 5 4 4 4 4 3 3 2 3 4 6 6 5 5 6 7 8 8 8 7 6 6 5 4 3 3 3 3 4 4 4 4 4 4 4 3 3 3 3 3 2
7 7 7 6 6 7 7 7 6 6 6 5 5 5 5 5 5 4 4 4 4 4 4 5 5 5 5 5 5 5 4 4 3 3 2 2 3 4 5 6 6 6 6 7 7 7 7 7 6 5 4 3 3 3 3 3 4 4 4 4 4 3 3 3 3 3 3 4 2
7 7 7 7 7 7 7 7 6 6 6 5 5 5 5 5 5 5 4 4 4 4 4 4 5 6 5 5 4 4 4 4 4 3 2 2 2 3 4 5 6 6 6 6 7 7 7 6 6 5 4 2 2 2 2 3 3 4 4 4 3 3 3 3 3 3 3 4 3
Wind_Direction
131 128 121 104 86 19 275 261 253 265 276 281 284 287 289 284 279 278 280 285 299 317 332 345 346 341 333 327 320 316 314 313 313 311 310 307 307 308 308 307 306 304 300 295 292 289 283 275 271 276 303 331 322 319 308 241 213 207 201 193 189 190 193 200 193 183 177 177 173
137 135 132 129 158 199 225 231 220 218 226 240 265 282 289 286 283 281 282 287 308 328 336 338 333 323 316 313 315 316 316 316 317 317 317 317 319 320 319 316 314 311 308 303 302 300 297 290 292 319 43 48 57 51 43 11 192 188 185 177 171 184 196 201 196 190 183 170 143
142 148 154 164 186 209 225 233 230 232 239 255 280 289 289 286 282 281 283 291 307 323 331 325 314 306 304 308 316 318 319 322 325 325 325 327 330 331 329 325 323 322 320 319 323 329 339 351 17 38 53 56 65 61 47 24 42 81 100 93 72 68 85 99 91 88 88 91 102
146 149 154 162 195 240 267 280 294 309 321 332 315 300 291 287 288 291 296 300 308 324 333 317 304 304 308 318 321 323 325 334 336 334 333 336 336 334 333 333 335 337 340 343 351 359 10 23 35 43 49 52 59 59 51 38 51 61 68 65 59 60 65 73 72 71 72 76 85
145 141 131 120 93 317 312 325 335 336 334 322 304 295 291 293 301 306 307 306 318 334 335 311 307 317 326 324 325 326 331 342 346 344 340 340 337 336 337 343 346 349 353 358 7 15 24 31 39 46 49 52 54 57 59 60 67 69 67 59 56 59 65 73 76 81 86 89 88
141 132 120 100 59 339 328 348 344 332 316 301 290 286 287 295 304 305 303 304 318 331 330 314 318 324 325 318 323 329 336 346 352 348 342 339 336 337 342 351 356 360 4 7 15 23 30 36 43 49 51 53 56 58 61 66 73 75 73 65 56 54 59 65 72 82 91 98 100
135 130 125 111 83 354 323 336 309 291 285 283 279 280 282 287 285 283 285 295 319 338 340 328 332 330 325 320 324 331 339 347 353 351 345 339 342 347 352 357 3 8 11 12 17 24 32 40 47 53 56 56 56 60 66 75 82 85 84 80 71 65 66 67 71 80 92 103 106
134 129 125 116 143 268 274 277 272 269 265 264 270 275 280 283 280 280 283 292 315 339 346 333 336 330 324 320 326 334 341 348 353 354 350 340 350 355 358 0 6 10 14 17 21 26 31 37 43 51 56 57 56 64 77 89 92 92 90 88 84 79 77 80 82 89 98 105 107
146 145 149 167 205 240 255 260 264 265 268 269 281 288 289 286 280 275 270 270 281 310 324 328 328 319 312 315 328 337 347 351 351 350 349 347 355 358 359 4 11 14 17 21 29 36 39 40 42 47 52 54 52 63 79 91 93 92 90 88 87 85 84 85 90 96 100 104 106
151 154 165 181 194 221 249 258 252 257 264 272 283 287 286 284 275 271 268 266 242 228 291 331 321 315 316 324 332 340 347 353 351 349 349 356 359 359 0 2 8 12 17 23 33 48 58 64 60 60 61 63 63 66 73 82 87 89 88 87 88 87 84 81 85 90 95 99 102
151 153 169 201 216 240 253 256 241 236 241 256 247 240 243 256 263 272 277 272 245 234 21 343 335 333 331 333 336 338 339 348 352 351 352 358 3 6 5 2 2 6 9 14 25 47 64 70 72 74 75 79 78 78 79 84 89 92 94 96 94 90 86 83 85 91 97 103 103
154 157 168 203 242 253 256 258 246 233 225 243 240 205 176 194 247 264 252 248 243 19 26 352 349 341 337 335 338 334 334 340 350 355 1 9 11 12 14 15 7 3 2 4 16 37 56 65 70 73 76 79 79 81 85 89 93 95 97 97 95 92 91 90 93 99 106 110 107
160 169 181 197 222 239 249 255 253 243 228 220 264 257 146 131 198 228 227 210 186 128 55 2 353 345 341 345 345 342 341 347 353 360 8 19 18 19 22 27 16 3 356 5 25 40 56 69 73 76 79 80 82 85 89 92 95 97 98 98 97 97 97 97 98 101 104 105 103
172 184 194 202 217 229 239 244 250 248 236 209 242 283 288 185 200 211 211 188 166 143 126 63 358 350 349 349 343 339 339 346 354 1 10 20 23 25 27 28 18 3 355 10 38 53 62 71 75 79 82 86 88 89 89 91 95 98 100 102 104 103 103 101 100 99 99 99 100
182 189 197 204 215 226 234 238 243 243 236 219 218 242 258 243 219 208 197 172 171 171 172 181 189 291 334 332 325 323 324 327 339 356 12 24 24 25 26 24 16 7 1 9 33 53 65 74 79 80 79 78 80 81 82 83 87 91 94 97 99 101 102 103 102 101 101 102 103
187 190 195 205 214 223 230 235 238 237 232 222 210 224 243 250 238 228 214 191 192 200 210 210 212 217 247 290 306 309 309 310 320 344 11 24 23 22 22 21 15 8 3 7 26 45 57 65 74 75 75 74 74 77 80 81 83 85 88 92 94 96 98 101 102 103 104 106 109
189 189 196 212 225 232 236 235 235 233 229 220 207 216 232 241 244 243 240 236 236 238 240 239 248 254 258 265 291 302 306 310 328 357 17 24 25 24 22 21 18 10 6 10 30 45 52 54 63 68 71 73 74 76 79 81 83 84 85 87 88 90 91 94 97 99 102 105 107
187 185 191 215 237 247 250 245 239 233 225 214 208 216 230 239 246 248 249 254 262 267 270 272 280 286 292 297 309 317 323 329 350 11 22 26 28 28 27 26 25 21 20 26 41 52 59 62 68 72 74 74 74 75 77 79 81 81 81 81 82 84 85 87 90 93 97 100 102
193 188 195 214 233 245 250 248 242 232 221 208 209 217 226 236 250 257 261 264 272 281 285 290 294 298 304 311 324 331 335 339 359 15 24 28 29 29 29 29 32 34 37 44 55 63 71 77 80 82 83 82 79 78 78 78 79 79 79 79 81 82 83 84 86 88 93 98 101
209 207 211 219 228 233 238 239 235 225 213 204 205 211 218 221 238 253 265 268 273 280 286 289 290 293 299 310 323 327 327 331 358 17 28 31 28 27 29 37 46 51 54 62 76 85 90 91 91 91 92 92 88 86 83 82 82 81 80 79 80 82 85 87 90 92 95 99 103
221 221 224 227 223 223 227 233 231 221 210 201 202 207 214 217 226 240 256 267 273 275 276 276 281 288 298 311 316 312 310 317 358 21 32 37 29 19 14 34 66 69 69 75 93 103 106 104 102 101 100 98 97 95 94 92 91 90 89 87 86 87 91 95 98 100 102 104 105
225 223 226 229 225 225 228 235 232 222 209 200 206 214 221 227 235 245 258 273 280 277 274 277 287 301 315 324 320 311 306 325 10 29 35 41 33 19 8 31 68 77 77 74 88 103 110 111 109 107 106 105 104 103 103 104 103 102 101 101 99 97 96 96 98 99 100 101 102
221 218 221 228 229 230 231 235 236 230 221 212 218 226 233 241 246 256 267 282 285 280 276 277 296 330 347 350 332 319 317 357 35 42 44 51 51 39 30 42 70 87 97 105 106 109 110 111 109 109 109 109 110 110 111 111 111 110 109 108 106 102 98 94 94 95 98 102 103
209 211 216 224 228 229 230 233 237 237 235 231 234 242 252 262 266 275 289 299 295 290 287 292 70 83 70 40 302 290 305 75 83 79 77 83 91 86 78 77 95 106 116 112 104 111 116 116 114 114 115 117 118 119 119 119 118 117 115 113 110 108 106 104 107 109 109 109 107
200 204 212 220 225 228 229 231 235 239 242 245 250 257 267 287 297 302 297 282 274 277 324 68 92 116 143 178 199 192 169 152 146 143 146 149 149 149 147 153 148 137 105 79 84 105 122 126 127 128 128 129 127 125 124 124 124 122 119 117 116 115 116 117 117 115 111 106 100
198 200 205 214 220 223 225 226 230 234 240 245 251 254 258 265 229 203 197 192 189 166 134 112 121 133 149 150 167 168 160 163 164 166 170 173 177 179 182 187 167 145 119 109 119 128 131 130 132 135 136 134 131 129 127 125 124 122 120 120 121 122 122 121 117 112 107 103 101
196 200 204 209 213 216 217 217 220 224 228 228 222 213 209 215 203 189 181 176 169 157 149 143 147 145 141 137 147 157 165 168 165 169 175 180 189 191 192 195 176 153 141 150 156 152 143 134 131 129 126 122 122 123 123 122 122 122 124 128 128 128 127 125 121 116 111 108 108
196 199 202 206 209 211 210 208 207 208 208 206 197 193 193 197 190 183 177 173 169 167 166 163 158 154 152 159 166 171 175 177 171 174 181 190 194 192 186 182 163 152 154 163 164 158 147 135 127 119 113 105 104 108 115 121 125 128 130 130 129 129 130 129 123 118 114 111 110
195 197 198 201 203 203 201 200 196 195 197 200 201 200 196 189 183 179 179 179 179 178 175 168 167 171 175 178 178 179 182 186 184 184 185 192 191 178 160 145 140 148 157 162 159 152 144 135 127 119 113 107 107 114 123 128 128 127 125 121 126 130 132 130 125 122 119 116 112
191 193 195 197 198 195 195 196 193 193 197 207 209 207 201 186 179 183 190 197 195 188 177 171 184 188 186 179 179 180 185 193 198 194 187 184 173 153 137 133 138 148 154 154 148 143 139 135 129 124 120 118 120 123 125 124 121 121 120 121 127 130 131 129 129 129 128 126 121
188 191 194 200 199 197 194 193 193 193 198 210 211 208 199 188 190 198 206 210 202 190 179 185 195 193 184 173 175 179 185 195 200 190 174 159 144 132 128 131 136 141 144 142 138 135 134 131 127 123 121 121 119 117 114 116 118 119 120 121 123 122 121 120 128 132 133 133 130
186 190 196 203 202 198 192 186 186 190 199 213 211 203 192 188 198 206 209 207 194 187 188 198 196 188 177 169 168 172 179 186 176 157 141 133 128 126 126 127 131 134 134 133 130 128 126 122 118 113 108 102 97 94 95 97 102 104 104 105 109 112 115 117 126 130 133 135 137
186 191 197 203 201 196 187 178 177 183 194 208 209 201 189 187 194 198 201 198 191 189 192 199 189 177 166 164 159 158 157 152 134 126 123 123 122 121 119 119 122 126 127 127 124 122 120 117 113 109 103 97 92 89 89 89 89 93 96 95 92 89 85 83 85 95 109 124 135
188 193 198 202 199 192 184 174 174 179 189 202 205 198 187 184 185 185 184 188 190 190 189 186 169 155 143 135 120 114 111 108 111 116 118 119 119 118 117 115 115 120 122 120 119 119 118 118 116 112 108 104 102 102 103 102 100 98 96 93 84 74 66 59 59 58 62 74 99
189 194 198 199 195 188 181 175 174 179 188 197 199 193 185 181 181 178 172 170 169 163 149 130 112 100 88 74 66 62 61 64 82 105 119 124 122 119 116 114 114 117 119 117 118 119 120 120 118 115 112 110 110 111 111 108 105 103 101 99 94 89 82 75 68 61 55 52 57
189 194 197 197 192 186 180 176 176 180 187 193 194 189 183 179 176 170 162 155 147 136 124 114 104 94 84 72 62 53 48 45 51 72 101 120 119 115 111 110 112 115 118 118 120 121 122 121 118 115 112 109 109 109 108 107 107 109 110 110 108 106 101 94 87 77 67 55 43
189 193 196 196 191 186 181 178 179 182 187 191 190 185 180 175 170 165 160 157 150 143 136 129 120 111 102 93 82 67 52 44 46 46 53 77 103 109 108 107 108 113 118 121 123 124 124 123 120 117 113 109 110 110 110 111 114 117 119 118 116 115 112 107 103 97 89 75 46
187 191 195 196 191 185 181 180 181 184 186 188 184 181 175 171 168 166 166 166 160 155 149 142 133 123 116 111 103 89 72 60 56 49 43 41 82 105 112 111 111 115 121 126 128 129 128 127 125 124 122 121 121 121 121 123 126 127 126 124 121 122 122 120 117 113 103 89 52
185 189 193 194 188 182 179 180 181 182 182 181 177 173 172 170 169 169 169 172 169 165 159 151 139 131 125 123 116 108 97 86 74 61 48 40 83 109 118 121 122 125 130 134 135 135 135 134 133 134 134 132 131 131 132 133 134 133 131 128 127 128 128 126 125 121 114 106 73
182 187 190 191 186 182 179 179 178 176 175 172 168 167 169 171 169 167 168 174 173 168 158 146 139 135 134 133 127 120 113 106 94 77 60 58 97 116 127 132 134 136 139 141 142 143 142 142 142 144 144 140 138 138 139 139 137 136 135 133 133 132 132 132 132 133 133 133 135
181 185 190 192 189 184 181 178 174 170 167 162 161 163 167 169 166 165 167 175 171 162 149 139 139 141 142 141 135 128 125 126 122 114 102 100 120 132 139 140 140 141 144 147 149 150 149 149 150 152 152 146 143 142 142 141 139 138 138 137 138 137 138 141 145 148 149 150 155